Location: Newark
(33.9035°S, 18.4112°E)
Time: 18:50:55
(UTC+00:00)

STARLINK-1086 - Pass Details

Date: 21 January 2020
Orbit: 349 x 351 km, 53.0° (Epoch: 18 February)

Event Time Altitude Azimuth Distance (km) Brightness Sun altitude
Exits shadow 02:50:02 25° 292° (WNW) 775 3.8 -12.7°
Maximum altitude 02:51:30 54° 223° (SW) 442 3.1 -12.5°
Drops below altitude 10° 02:54:26 10° 144° (SE) 1,339 6.8 -12.0°
Sets 02:56:30 0° 139° (SE) 2,189 8.4 -11.6°
